Simultaneous Nadir Overpasses (SNOs) Predictions

Prediction of SNOs between METOP-A and NOAA-19 Satellite Orbit:

Table of predicted SNOs for the next 14.0 days since TLE Epoch: 2/2/2013
Index Date (METOP-A) Time (METOP-A) Lat,Lon (METOP-A) SZA (METOP-A ) Date (NOAA-19) Time (NOAA-19) Lat,Lon (NOAA-19) SZA (NOAA-19 ) Distance(km) Time Diff (sec)
1 02/08/2013 11:24:32 -73.50,-178.09 91.48 02/08/2013 11:23:18 -73.49,-178.59 91.44 15.55 74
2 02/08/2013 12:15:14 73.37, -11.04 88.41 02/08/2013 12:14:19 73.39, -11.11 88.44 2.63 55
3 02/08/2013 13:05:56 -73.37, 156.28 91.61 02/08/2013 13:05:20 -73.35, 156.21 91.61 3.04 36
4 02/08/2013 13:56:36 73.35, -36.44 88.36 02/08/2013 13:56:23 73.35, -36.54 88.37 3.15 13
5 02/08/2013 14:47:19 -73.30, 130.78 91.70 02/08/2013 14:47:24 -73.32, 130.78 91.68 2.14 5
6 02/08/2013 15:37:59 73.27, -61.95 88.27 02/08/2013 15:38:26 73.26, -61.86 88.26 3.02 27
7 02/08/2013 16:28:41 -73.27, 105.38 91.74 02/08/2013 16:29:28 -73.28, 105.35 91.74 1.24 47
8 02/08/2013 17:19:21 73.24, -87.34 88.23 02/08/2013 17:20:30 73.22, -87.29 88.19 2.77 69
9 02/08/2013 18:10:14 -72.69, 78.81 92.27 02/08/2013 18:11:22 -72.74, 81.00 92.35 72.77 68




NCC Satellite Simultaneous Nadir Overpasses (SNOs) Prediction Service
